Location: Stormi
(61.3333°N, 23.0500°E)
Time: 07:10:48
(UTC+00:00)

Daily predictions for brighter satellites

Satellite Brightness Start Highest point End
(mag) Time Altitude Azimuth Time Altitude Azimuth Time Altitude Azimuth
Cosmos 2278 Rocket 3.2 15:18:08 10° W 15:23:27 39° NNW 15:28:48 10° NE
RESURS DK-1 3.9 15:21:23 10° WNW 15:24:59 27° N 15:28:35 10° NE
ATLAS 5 CENTAUR R/B 1.9 15:22:11 10° SW 15:26:28 62° SE 15:31:29 10° ENE
SL-08 R/B 3.9 15:22:02 10° NNE 15:26:52 66° WNW 15:31:46 10° SW
USA 308 4.5 15:23:38 10° WSW 15:27:26 30° S 15:31:12 10° SE
CZ-4B R/B 2.7 15:26:35 10° NE 15:29:07 20° E 15:31:36 10° SE
Cosmos 1726 2.2 15:26:43 10° SSW 15:30:28 85° WNW 15:34:13 10° NNE
Cosmos 2228 3.8 15:27:10 10° SSE 15:30:52 29° E 15:34:36 10° NNE
Cosmos 1758 3.8 15:26:58 10° SSW 15:31:04 69° WNW 15:35:11 10° NNE
Cosmos 1655 Rocket 4.4 15:25:39 10° NNW 15:32:03 73° W 15:38:26 10° S
Cosmos 1452 Rocket 3.8 15:27:28 10° S 15:32:32 49° ESE 15:37:38 10° NE
Cosmos 1939 Rocket 3.1 15:29:20 10° SE 15:33:04 43° ENE 15:36:47 10° N
YAOGAN 6 3.1 15:30:12 10° S 15:33:52 69° WSW 15:37:36 10° NNW
Cosmos 1745 Rocket 4.5 15:29:41 10° N 15:35:32 39° ENE 15:41:24 10° SE
NOSS 7 (H) 4.4 15:32:41 10° W 15:35:36 60° N 15:38:54 10° ENE
Cosmos 1844 Rocket 3.8 15:31:41 10° WNW 15:36:44 31° N 15:41:47 10° ENE
Cosmos 2098 Rocket 4.0 15:34:16 10° NNW 15:37:26 37° W 15:40:13 10° SSW
CZ-4B R/B 3.6 15:32:59 10° SSE 15:38:33 71° WSW 15:44:03 10° NNW
Cosmos 1606 Rocket 4.2 15:35:10 10° SSE 15:39:06 33° E 15:43:05 10° NNE
ARGOS 4.0 15:35:13 10° ESE 15:39:52 30° NE 15:44:31 10° N
Helios 1A Rocket 3.3 15:36:05 10° SE 15:39:58 42° ENE 15:43:51 10° N
Cosmos 2266 Rocket 4.3 15:33:50 10° NNW 15:40:02 77° W 15:46:20 10° S
Cosmos 1624 Rocket 4.2 15:35:25 10° SW 15:40:44 80° NW 15:46:07 10° NNE
Meteor 2-16 Rocket 4.4 15:35:16 10° NNW 15:41:22 69° ENE 15:47:26 10° SSE
Cosmos 1656 Rocket 3.7 15:36:40 10° SSW 15:42:14 69° SE 15:47:55 10° NE
Cosmos 2227 Rocket 2.2 15:37:07 10° NW 15:42:49 86° NE 15:48:30 10° SE
Okean-O 3.0 15:40:56 10° SE 15:45:09 44° ENE 15:49:23 10° N
Cosmos 1689 Rocket 3.9 15:44:32 12° ENE 15:45:36 13° E 15:47:08 10° ESE
Timation 1 Rocket 4.5 15:40:44 10° NW 15:46:43 62° NE 15:52:42 10° ESE
Meteor 1-16 Rocket 4.1 15:41:19 10° S 15:46:50 72° ESE 15:52:15 10° NNE
Cosmos 1244 Rocket 4.5 15:42:11 10° NNW 15:48:21 65° ENE 15:54:34 10° SSE
Cosmos 2263 Rocket 2.8 15:43:07 10° NW 15:48:32 42° NNE 15:53:51 10° E
NOSS 3-4 (A) 3.7 15:42:30 10° WNW 15:49:00 82° NNE 15:56:16 10° ESE
NOSS 3-4 (C) 3.7 15:42:36 10° WNW 15:49:06 82° NNE 15:56:22 10° ESE
Cosmos 2058 3.6 15:45:36 10° N 15:49:21 32° ENE 15:53:04 10° SE
H-2A R/B 2.7 15:45:13 10° ESE 15:50:12 38° NE 15:55:13 10° N
GEOS 3 Rocket 3.8 15:45:44 10° ESE 15:51:08 84° SSW 15:56:36 10° WNW
Ariane Rocket 4.2 15:47:34 10° E 15:51:31 23° NE 15:55:28 10° N
Cosmos 1892 3.2 15:48:21 10° N 15:52:02 40° ENE 15:55:44 10° SE
EP 3 3.4 15:50:06 10° WSW 15:52:03 79° SSE 15:53:26 18° ENE
CZ-4C R/B 2.7 15:46:15 10° W 15:52:17 75° N 15:59:14 12° E
Cosmos 1400 Rocket 4.0 15:49:09 10° SE 15:52:20 22° E 15:55:31 10° NE
Cosmos 304 Rocket 3.7 15:48:06 10° SSW 15:52:54 78° ESE 15:57:42 10° NE
USA-17 4.5 15:51:32 10° W 15:54:33 59° N 15:57:13 14° ENE
Cosmos 1908 3.1 15:50:42 10° S 15:54:33 73° ESE 15:58:27 10° NNE
Cosmos 2297 4.5 15:51:25 10° WSW 15:56:53 49° NNW 16:02:23 10° NE
CZ-4 R/B 1.6 15:53:12 10° SE 15:56:53 44° ENE 16:00:35 10° N
Cosmos 1408 3.3 15:53:36 10° N 15:56:54 31° ENE 16:00:13 10° SE
CSL-04 Rocket 4.1 15:52:18 10° SE 15:57:30 43° NE 16:02:40 10° NNW
CZ-4C R/B 3.0 15:55:15 10° NNE 15:58:29 76° WNW 16:01:47 10° SSW
Cosmos 1356 Rocket 3.5 15:55:57 10° SSW 16:00:16 89° WNW 16:04:37 10° NNE
Cosmos 1455 Rocket 4.4 15:56:25 10° SW 16:00:32 41° WNW 16:04:43 10° N
Cosmos 1953 Rocket 3.6 15:56:18 10° NNW 16:00:45 89° WSW 16:05:11 10° SSE
NOSS 2-1 (C) 3.2 16:00:34 10° SW 16:03:58 63° SSE 16:07:12 15° ENE
Cosmos 1697 Rocket 4.3 16:05:25 10° ESE 16:07:49 13° E 16:07:49 13° E
Cosmos 2263 4.4 16:03:17 10° SW 16:09:04 81° NW 16:14:51 10° NE
NOSS 2-1 (D) 3.2 16:05:47 10° SW 16:09:12 67° SSE 16:12:17 16° ENE
Cosmos 1331 Rocket 4.3 16:04:46 10° S 16:09:37 43° ESE 16:14:29 10° NE
Cosmos 1346 Rocket 3.0 16:06:32 10° N 16:10:27 49° ENE 16:14:21 10° SE
SL-4 R/B 3.8 16:08:08 10° SW 16:10:38 18° S 16:13:14 10° SE
USA 215 3.6 16:04:18 11° ESE 16:10:38 63° S 16:17:09 10° W
IRS-1C Rocket 4.1 16:05:41 10° SSE 16:10:59 90° SSW 16:16:19 10° NNW
ATLAS 2AS CENTAUR R/B 3.0 16:03:13 10° WNW 16:11:07 83° NNE 16:17:50 13° ESE
Cosmos 1300 3.0 16:07:33 10° SSE 16:11:11 44° E 16:14:51 10° NNE
SeaSat 1 2.5 16:07:21 10° ESE 16:12:15 64° NE 16:17:10 10° NW
Cosmos 2058 Rocket 3.7 16:08:12 10° SSE 16:12:19 36° E 16:16:28 10° NNE
Cosmos 1825 2.9 16:09:55 10° N 16:13:24 33° ENE 16:16:48 10° SE
CZ-2D R/B 3.1 16:12:44 10° SSE 16:16:32 75° ENE 16:20:22 10° NNW
CSL-04 DEB 4.3 16:13:25 10° NNE 16:17:26 88° W 16:21:22 10° SSW
Cosmos 1953 3.3 16:14:05 10° SW 16:17:56 48° WNW 16:21:50 10° N
Cosmos 44 4.3 16:14:32 10° S 16:18:22 26° ESE 16:20:38 18° E
Cosmos 968 Rocket 3.6 16:14:48 10° NW 16:20:05 80° WSW 16:25:18 10° SSE
ERS-2 2.1 16:17:56 10° NNE 16:21:36 64° ESE 16:25:13 10° S
SAR-Lupe-4 3.9 16:18:12 10° NNE 16:21:39 41° E 16:25:05 10° S
Cosmos 1633 4.4 16:20:29 10° NNE 16:22:08 14° NE 16:22:08 14° NE
Cosmos 2297 Rocket 2.9 16:17:03 10° NW 16:22:37 56° WSW 16:28:09 10° SSE
Cosmos 1818 3.6 16:17:38 10° SW 16:23:05 77° SE 16:27:31 16° ENE
SJ-11-01 4.4 16:18:36 10° SE 16:23:08 51° ENE 16:27:42 10° NNW
COSMOS 2455 3.4 16:18:27 10° WNW 16:24:21 50° N 16:28:52 17° ENE
In-Cosmos 22 Rocket 4.1 16:19:41 10° NNW 16:25:04 89° W 16:30:30 10° SSE
SJ 16-02 2.7 16:21:49 10° NNW 16:25:25 23° NNE 16:27:09 18° ENE
MOS 1 Rocket 4.3 16:22:06 10° NE 16:25:46 23° E 16:29:33 10° SE
Cosmos 1340 2.8 16:22:25 10° NNW 16:26:12 76° WSW 16:29:58 10° S
OBJECT-B 3.0 16:27:20 13° NE 16:27:20 13° NE 16:28:19 10° NNE
Cosmos 1777 Rocket 4.3 16:21:46 10° NNW 16:26:50 48° NE 16:30:34 17° ESE
Cosmos 1420 Rocket 4.4 16:21:51 10° SW 16:27:06 66° NW 16:32:19 10° NNE
COSMO-SKYMED 1 2.9 16:23:17 10° NNE 16:27:28 43° E 16:31:38 10° S
Cosmos 2369 Rocket 2.7 16:21:54 10° WSW 16:27:34 60° NW 16:33:16 10° NE
Aureole 3 Rocket 3.7 16:24:04 10° SSE 16:28:28 51° E 16:34:38 10° NNE
Cosmos 1076 Rocket 3.6 16:25:00 10° N 16:29:10 50° ENE 16:33:18 10° SE
H-2A R/B 2.5 16:25:21 10° NNE 16:29:33 62° WNW 16:33:39 10° SW
Cosmos 371 Rocket 4.3 16:26:13 10° WSW 16:30:54 46° NW 16:35:37 10° NNE
SL-08 ROCKET BODY 4.4 16:26:35 10° NNW 16:32:40 77° ENE 16:38:50 10° SSE
S3M 4.3 16:29:07 10° SSE 16:34:44 39° E 16:40:26 10° NNE
NOSS 7 (E) 4.4 16:32:24 10° WNW 16:35:26 60° N 16:36:51 30° ENE
Cosmos 2227 4.3 16:30:16 10° NW 16:35:52 58° NE 16:39:46 20° ESE
HJ-1C 3.6 16:34:03 17° SE 16:36:25 47° ENE 16:39:42 10° N
CSL-04 Debris 4.1 16:32:20 10° SSE 16:37:46 72° ENE 16:43:15 10° NNW
Cosmos 1110 Rocket 3.9 16:32:55 10° SSW 16:38:07 67° ESE 16:43:18 10° NE
ADEOS Rocket 3.5 16:33:08 10° NNE 16:39:12 69° WNW 16:45:57 10° SW
SAR-Lupe-1 4.1 16:36:02 10° NNE 16:39:36 56° ESE 16:43:09 10° S
Cosmos 1302 Rocket 4.4 16:35:37 10° S 16:40:34 42° ESE 16:45:34 10° NE
Genesis I 3.6 16:37:24 10° W 16:41:13 55° N 16:43:12 26° ENE
Lacrosse 5 2.3 16:36:25 10° WSW 16:41:21 54° S 16:44:18 23° ESE
Okean 3 Rocket 4.4 16:42:44 10° N 16:46:41 31° ENE 16:47:36 28° E
Resurs 01 Rocket 3.1 16:46:53 20° NE 16:47:10 20° NE 16:50:23 10° N
Cosmos 292 Rocket 3.8 16:42:36 10° SSW 16:47:20 58° ESE 16:51:47 12° NE
Aureole 3 2.6 16:44:26 10° S 16:47:23 55° E 16:49:30 17° NNE
Okean O Rocket 4.1 16:44:58 10° SSW 16:48:33 24° W 16:52:09 10° NW
Meteor 2-3 Rocket 4.2 16:43:50 10° NNW 16:49:15 42° ENE 16:52:24 23° ESE
YAOGAN 1 2.6 16:45:31 10° SSE 16:49:51 82° WSW 16:54:14 10° NNW
Cosmos 1503 Rocket 4.1 16:44:51 10° NW 16:50:04 76° WSW 16:55:19 10° SSE
ERBS 3.1 16:46:59 10° WSW 16:50:08 39° S 16:51:09 30° SE
Cosmos 1766 Rocket 4.4 16:46:24 10° N 16:50:27 32° ENE 16:51:19 29° E
Meteor 2-8 Rocket 4.4 16:45:01 10° S 16:51:04 67° E 16:57:12 10° NNE
SKYMED 3 4.5 16:47:15 10° NNE 16:51:37 65° ESE 16:55:57 10° S
Cosmos 1441 Rocket 4.0 16:48:49 10° N 16:52:20 31° ENE 16:52:28 31° ENE
ARIANE 5 R/B 4.4 16:53:28 17° NE 16:53:32 17° NE 16:56:22 10° N
SPOT 3 Rocket 4.4 16:53:07 26° E 16:54:36 31° NE 16:59:09 10° N
CZ-2C R/B 3.3 16:50:34 10° SSE 16:56:20 81° WSW 17:01:54 10° NNW
Cosmos 1726 Rocket 3.7 16:56:42 10° SSW 17:01:05 76° WNW 17:05:31 10° NNE
Cosmos 1354 Rocket 4.2 16:56:19 10° NW 17:01:35 72° WSW 17:06:50 10° SSE
Cosmos 1943 Rocket 3.2 16:56:23 10° W 17:01:35 39° NNW 17:06:02 14° NE
Cosmos 2082 4.3 16:56:00 10° NW 17:01:39 59° WSW 17:07:16 10° SSE
CZ-4B R/B 2.0 16:58:26 10° N 17:01:40 54° WNW 17:04:49 10° SW
NOSS 2-1 (E) 3.2 16:58:50 10° WSW 17:02:25 84° NNW 17:04:07 35° ENE
RESURS DK-1 3.7 17:00:26 10° NW 17:04:06 28° NNE 17:05:15 24° NE
Cosmos 1553 Rocket 3.9 16:57:54 10° S 17:04:11 71° E 17:10:24 10° NNE
Meteor 2-10 Rocket 3.6 17:01:56 10° S 17:06:59 51° E 17:11:54 10° NNE
Cosmos 2228 3.7 17:04:02 10° SSW 17:08:13 54° WNW 17:12:28 10° N
Cosmos 2278 Rocket 3.4 17:03:50 10° WNW 17:08:53 32° N 17:11:49 20° NE
ATLAS 5 CENTAUR R/B 1.9 17:06:32 10° W 17:11:07 73° N 17:13:29 33° ENE
Terra 3.9 17:11:53 13° NE 17:12:02 13° NNE 17:14:11 10° N
Meteor 2-15 Rocket 4.5 17:06:40 10° S 17:12:39 56° E 17:18:38 10° NNE
Cosmos 1241 Rocket 4.5 17:06:44 10° SW 17:13:10 86° SSE 17:17:31 23° ENE
Cosmos 1452 Rocket 4.3 17:09:35 10° WSW 17:14:44 52° NW 17:19:56 10° NNE
Helios 1A Rocket 4.4 17:11:20 10° SSW 17:15:12 38° W 17:19:04 10° NNW
SKYMED 2 3.5 17:11:19 10° NNE 17:15:42 85° WNW 17:20:04 10° SSW
CZ-2C R/B 4.0 17:11:58 10° NNE 17:14:40 23° NE 17:14:40 23° NE
Cosmos 1606 Rocket 4.5 17:12:32 10° SW 17:16:50 50° WNW 17:21:11 10° N
Cosmos 1689 Rocket 2.1 17:16:34 50° N 17:17:11 72° WNW 17:20:03 10° SSW
Cosmos 2151 2.8 17:13:50 10° NNW 17:18:04 69° ENE 17:19:28 40° SE
Cosmos 1992 Rocket 4.4 17:14:53 10° S 17:19:35 39° ESE 17:19:35 39° ESE
ARGOS 3.1 17:14:14 10° SSE 17:19:41 87° WSW 17:25:11 10° NNW
GENESIS II 4.3 17:15:49 10° SW 17:19:48 57° SE 17:20:07 55° ESE
SJ-6B 3.0 17:20:42 51° E 17:21:02 53° ENE 17:25:05 10° N
Cosmos 1745 Rocket 4.3 17:15:10 10° NNW 17:21:24 69° W 17:27:40 10° S
Okean-O 3.9 17:17:30 10° S 17:21:42 41° W 17:25:57 10° NNW
Cosmos 1844 Rocket 3.2 17:16:26 10° NW 17:21:54 44° NNE 17:23:39 34° ENE
PSLV R/B 3.9 17:19:47 10° NNE 17:24:01 85° WNW 17:28:12 10° SSW
SL-08 RB Rocket 3.5 17:22:30 30° SSE 17:24:43 80° ENE 17:29:16 10° NNW
Meteor 2-15 4.3 17:18:56 10° S 17:25:03 76° E 17:31:12 10° NNE
NOSS 7 (H) 4.2 17:22:35 10° WNW 17:25:41 86° NNE 17:25:46 84° ENE
Cosmos 1656 3.7 17:20:42 10° SSW 17:26:09 54° ESE 17:28:36 31° ENE
Cosmos 2227 Rocket 4.0 17:21:33 10° NW 17:26:24 30° WSW 17:31:15 10° SSW
Cosmos 2058 3.9 17:22:28 10° NNW 17:26:26 47° W 17:30:22 10° S
Cosmos 1892 4.4 17:24:10 10° NNW 17:27:43 34° W 17:31:15 10° SSW
Cosmos 1408 Rocket 4.3 17:24:14 10° N 17:27:56 37° NE 17:27:56 37° NE
Cosmos 1400 Rocket 3.1 17:24:22 10° SSW 17:28:28 69° WNW 17:32:32 10° NNE
H-2A R/B 2.5 17:24:01 10° S 17:29:26 65° WSW 17:34:54 10° NNW
Ariane Rocket 2.9 17:27:38 34° SE 17:29:49 71° ENE 17:34:56 10° NNW
Resurs 1-3 4.0 17:32:09 44° NE 17:32:09 44° NE 17:36:05 10° N
Cosmos 1408 3.9 17:28:34 10° NNW 17:32:01 40° W 17:35:27 10° SSW
CZ-4 R/B 3.1 17:28:33 10° SSW 17:32:04 32° W 17:35:36 10° NNW
Cosmos 2263 Rocket 2.2 17:27:18 10° NW 17:33:03 87° SW 17:35:33 35° SE
Cosmos 1844 4.2 17:27:55 10° NW 17:33:17 44° NNE 17:34:38 38° ENE
Cosmos 990 Rocket 4.3 17:32:39 10° NNW 17:37:45 46° NE 17:38:26 44° ENE
CSL-04 Rocket 4.3 17:32:20 10° S 17:37:47 57° WSW 17:43:13 10° NNW
EO 1 Delta rocket 4.0 17:33:04 10° NNE 17:38:25 55° E 17:39:07 50° SE
NOSS 3-4 (A) 4.1 17:33:21 10° WNW 17:39:54 59° SW 17:44:11 25° SSE
NOSS 3-4 (C) 4.1 17:33:28 10° WNW 17:40:00 59° SW 17:44:16 25° SSE
CZ-4C R/B 2.7 17:34:44 10° WNW 17:41:12 83° SSW 17:44:25 38° ESE
Cosmos 2184 Rocket 4.0 17:38:10 10° NNW 17:44:26 60° ENE 17:46:17 44° SE
Meteor 2-1 Rocket 4.0 17:39:53 10° S 17:45:24 80° ESE 17:51:00 10° NNE
CRYOSAT 2 4.5 17:43:12 10° N 17:48:06 75° W 17:52:57 10° SSW
Cosmos 1825 3.4 17:45:25 10° NNW 17:49:01 41° W 17:51:37 17° SSW
SL-4 R/B 4.1 17:47:12 10° SW 17:49:04 14° SSW 17:49:04 14° SSW
SeaSat 1 3.5 17:46:27 16° S 17:50:01 42° WSW 17:54:44 10° NW
Cosmos 2058 Rocket 4.1 17:45:53 10° SW 17:50:16 48° WNW 17:54:40 10° N
Cosmos 1697 Rocket 3.1 17:45:21 10° S 17:49:37 43° SSE 17:49:37 43° SSE
Cosmos 1709 Rocket 4.3 17:44:50 10° NNW 17:51:11 70° W 17:57:31 10° S
USA 215 3.8 17:51:39 32° SSE 17:54:22 48° SSW 18:00:40 10° W
NOSS 2-1 (C) 3.5 17:50:49 10° W 17:54:29 67° N 17:54:31 67° N
ERS-2 4.4 17:51:53 10° N 17:54:53 24° NW 17:57:52 10° WSW
Cosmos 1633 4.1 17:54:26 10° NNW 17:56:15 28° N 17:56:15 28° N
MetOp-B 4.5 17:58:13 46° NE 17:58:13 46° NE 18:03:11 10° NNW
OBJECT-B 3.0 18:00:30 20° N 18:00:30 20° N 18:01:42 10° NNW
Cosmos 1937 Rocket 3.9 17:53:49 10° NNW 17:58:47 45° NE 17:58:47 45° NE
Cosmos 44 3.1 17:54:21 10° SW 17:59:02 78° SE 17:59:04 78° SE
NOSS 2-1 (D) 3.6 17:56:04 10° W 17:59:36 66° NNW 17:59:36 66° NNW
ATLAS 2AS CENTAUR R/B 3.3 17:54:29 10° WNW 18:02:00 58° SW 18:05:17 33° SSE
COSMO-SKYMED 1 3.9 17:59:34 10° N 18:03:40 40° WNW 18:07:44 10° SW
MOS 1 Rocket 3.2 18:00:00 10° NNE 18:04:33 82° WNW 18:09:22 10° SSW
Cosmos 2074 Rocket 3.8 17:58:31 10° NNW 18:04:47 76° ENE 18:06:21 52° SE
SJ 16-02 1.6 18:00:20 10° NNW 18:04:08 58° N 18:04:08 58° N
Cosmos 1818 3.9 18:01:29 10° W 18:06:56 63° N 18:08:09 49° NE
Cosmos 2327 Rocket 4.4 18:02:26 10° NNW 18:08:34 61° ENE 18:08:58 60° E
Meteor 2-17 Rocket 4.4 18:02:32 10° NNW 18:08:38 85° WSW 18:10:59 40° S
COSMOS 2455 2.9 18:05:05 10° WNW 18:11:07 63° NNE 18:12:00 57° ENE
Cosmos 2341 Rocket 4.4 18:05:32 10° N 18:11:08 42° NE 18:11:08 42° NE
Cosmos 2369 Rocket 3.5 18:07:26 10° WNW 18:12:38 34° NNW 18:15:17 23° NNE
IRS-1A Rocket 4.5 18:10:35 33° S 18:13:04 66° WSW 18:18:36 10° NNW
Cosmos 883 Rocket 4.4 18:09:04 10° SSW 18:15:14 88° WNW 18:21:25 10° NNE
ERS-1 Rocket 4.2 18:18:48 29° NNE 18:18:48 29° NNE 18:22:03 10° N
Genesis I 4.4 18:15:20 10° WNW 18:18:05 41° NW 18:18:05 41° NW
Cosmos 2315 Rocket 3.8 18:13:02 10° S 18:19:15 86° ESE 18:25:30 10° NNE
S3M 4.4 18:13:53 10° SSW 18:19:58 62° WNW 18:26:10 10° NNE
Resurs 01 Rocket 2.5 18:24:28 43° N 18:24:28 43° N 18:27:31 10° NNW
MetOp-A 4.5 18:22:01 41° SSW 18:23:43 62° WSW 18:29:04 10° NNW
Lacrosse 5 2.6 18:19:06 10° W 18:23:30 41° SSW 18:23:30 41° SSW
Okean 3 Rocket 4.1 18:20:46 10° NNW 18:24:59 56° W 18:24:59 56° W
Cosmos 1766 Rocket 4.1 18:24:12 10° NNW 18:28:29 56° W 18:28:29 56° W
ARIANE 5 R/B 4.0 18:31:01 32° N 18:31:01 32° N 18:33:35 10° NNW
Cosmos 1898 Rocket 3.6 18:26:37 10° NNW 18:31:28 70° N 18:31:28 70° N
Meteor 2-3 Rocket 4.2 18:27:09 10° NNW 18:32:45 58° W 18:34:44 38° SSW
SPOT 3 Rocket 3.5 18:33:46 80° W 18:33:46 80° W 18:38:55 10° NNW
RESURS DK-1 4.0 18:38:42 10° NW 18:41:08 32° NNW 18:41:08 32° NNW
Cosmos 2154 Rocket 3.8 18:39:22 10° NNW 18:45:39 90° ENE 18:45:45 87° SSE
Cosmos 1943 Rocket 3.5 18:41:45 10° WNW 18:46:39 31° N 18:47:32 29° NNE
Terra 3.6 18:50:47 24° N 18:50:47 24° N 18:52:59 10° N
Cosmos 2278 Rocket 2.9 18:48:45 10° NW 18:53:39 44° NNE 18:53:39 44° NNE
ATLAS 5 CENTAUR R/B 2.5 18:51:11 10° WNW 18:55:01 56° WNW 18:55:01 56° WNW
Spot 2 Rocket 4.4 18:59:13 44° N 18:59:13 44° N 19:02:42 10° NNW
CZ-2C R/B 3.3 18:52:06 10° NNE 18:56:10 49° N 18:56:10 49° N
Cosmos 1844 Rocket 3.1 19:00:33 10° NW 19:05:18 62° WNW 19:05:18 62° WNW
SPOT 5 4.5 19:09:43 28° N 19:09:43 28° N 19:12:00 10° NNW
Cosmos 1656 4.2 19:04:21 10° WSW 19:09:54 56° NW 19:10:04 56° NNW
Cosmos 2263 Rocket 3.8 19:11:40 10° NW 19:16:23 27° WSW 19:17:16 26° WSW
Cosmos 1844 4.3 19:12:16 10° NW 19:16:31 53° NW 19:16:31 53° NW
CZ-4C R/B 3.5 19:23:09 10° WNW 19:29:31 42° SW 19:29:36 42° SW
Cosmos 1697 Rocket 4.4 19:29:07 10° WSW 19:31:25 25° WSW 19:31:25 25° WSW
SJ 16-02 3.8 19:39:17 10° NW 19:41:07 20° WNW 19:41:07 20° WNW
ATLAS 2AS CENTAUR R/B 4.4 19:46:05 10° WNW 19:51:36 23° WSW 19:52:43 22° SW
COSMOS 2455 3.9 19:51:13 10° NW 19:55:07 40° WNW 19:55:07 40° WNW
Cosmos 2369 Rocket 3.7 19:52:51 10° NW 19:57:03 32° N 19:57:03 32° N
Resurs 01 Rocket 4.2 20:02:02 18° NW 20:02:02 18° NW 20:03:40 10° NW
Terra 4.3 20:29:41 19° NNW 20:29:41 19° NNW 20:31:00 10° NNW
Cosmos 1943 Rocket 4.0 20:26:21 10° NW 20:29:02 26° NNW 20:29:02 26° NNW
Cosmos 2278 Rocket 4.0 20:33:02 10° NW 20:35:28 27° NW 20:35:28 27° NW
SL-16 R/B 4.2 21:51:04 27° NNE 21:51:04 27° NNE 21:54:41 10° NNW
SL-16 R/B 4.5 22:53:26 19° NE 22:53:26 19° NE 22:55:12 10° NE
Cosmos 2333 Rocket 4.4 23:02:57 21° NE 23:02:57 21° NE 23:04:46 10° NE
Cosmos 2237 Rocket 4.4 23:10:37 20° NE 23:10:37 20° NE 23:12:17 10° NE
Cosmos 2360 Rocket 4.3 23:17:31 22° NNE 23:17:31 22° NNE 23:19:49 10° NE
Cosmos 1980 Rocket 4.4 23:30:56 18° ENE 23:30:56 18° ENE 23:32:39 10° ENE
Resurs 1-4 Rocket 4.3 23:26:45 10° NNE 23:28:50 21° NE 23:28:50 21° NE
SL-16 R/B 4.2 23:36:10 26° NNW 23:36:10 26° NNW 23:38:37 10° NNW
SL-16 R/B 4.2 23:36:52 24° NE 23:36:52 24° NE 23:39:03 10° NE
Cosmos 2219 Rocket 4.0 23:43:23 27° NNE 23:43:23 27° NNE 23:46:08 10° NE
CZ-2D R/B 4.1 23:45:26 10° NNE 23:47:39 24° NE 23:47:39 24° NE
